TimeCST,TemperatureF,Dew PointF,Humidity,Sea Level PressureIn,VisibilityMPH,Wind Direction,Wind SpeedMPH,Gust SpeedMPH,PrecipitationIn,Events,Conditions,WindDirDegrees,DateUTC
12:15 AM,53.1,50.0,89,30.01,1.8,NE,3.5,-,N/A,,Overcast,40,2012-12-03 06:15:00
12:35 AM,53.6,50.4,89,30.00,0.2,ENE,3.5,-,N/A,Fog,Fog,60,2012-12-03 06:35:00
12:55 AM,54.9,51.8,89,30.00,0.2,East,3.5,-,N/A,Fog,Fog,80,2012-12-03 06:55:00
1:15 AM,55.9,52.9,89,29.99,0.2,Calm,Calm,-,N/A,Fog,Fog,0,2012-12-03 07:15:00
1:35 AM,56.5,53.4,89,29.98,0.2,Calm,Calm,-,N/A,Fog,Fog,0,2012-12-03 07:35:00
1:55 AM,59.9,56.8,90,29.98,0.2,SE,4.6,-,N/A,Fog,Fog,130,2012-12-03 07:55:00
2:15 AM,61.7,58.5,89,29.98,0.5,SE,4.6,-,N/A,Fog,Fog,140,2012-12-03 08:15:00
2:35 AM,62.2,59.0,89,29.98,0.5,SSE,5.8,-,N/A,Fog,Fog,150,2012-12-03 08:35:00
2:55 AM,62.6,59.4,89,29.97,1.0,SSE,8.1,-,N/A,,Overcast,150,2012-12-03 08:55:00
3:15 AM,63.0,59.9,90,29.96,1.5,SSE,6.9,-,N/A,,Overcast,150,2012-12-03 09:15:00
3:35 AM,63.5,60.3,89,29.96,2.0,SSE,5.8,-,N/A,,Overcast,160,2012-12-03 09:35:00
3:55 AM,63.9,60.8,90,29.95,2.5,SSE,9.2,-,N/A,,Overcast,160,2012-12-03 09:55:00
4:15 AM,63.9,60.8,90,29.94,2.5,SSE,9.2,-,N/A,,Overcast,160,2012-12-03 10:15:00
4:35 AM,64.4,61.2,89,29.94,3.0,South,6.9,-,N/A,,Overcast,170,2012-12-03 10:35:00
4:55 AM,64.6,61.2,89,29.93,3.0,SSE,6.9,-,N/A,,Overcast,160,2012-12-03 10:55:00
5:15 AM,64.8,61.2,88,29.93,3.0,SSE,6.9,-,N/A,,Overcast,160,2012-12-03 11:15:00
5:35 AM,64.8,61.0,88,29.93,3.0,SSE,8.1,-,N/A,,Overcast,150,2012-12-03 11:35:00
5:55 AM,65.3,61.3,87,29.93,4.0,South,9.2,-,N/A,,Overcast,170,2012-12-03 11:55:00
6:15 AM,65.5,61.5,87,29.93,4.0,South,10.4,-,N/A,,Overcast,170,2012-12-03 12:15:00
6:35 AM,65.5,61.2,86,29.92,5.0,South,9.2,-,N/A,,Overcast,170,2012-12-03 12:35:00
6:55 AM,65.3,61.0,86,29.92,5.0,South,8.1,-,N/A,,Mostly Cloudy,180,2012-12-03 12:55:00
7:15 AM,65.3,60.8,85,29.92,4.0,South,8.1,-,N/A,,Scattered Clouds,170,2012-12-03 13:15:00
7:35 AM,65.8,61.0,84,29.92,4.0,South,6.9,-,N/A,,Haze,170,2012-12-03 13:35:00
7:55 AM,66.4,61.2,83,29.91,5.0,South,11.5,-,N/A,,Haze,170,2012-12-03 13:55:00
8:15 AM,67.1,61.2,81,29.91,5.0,South,12.7,18.4,N/A,,Haze,170,2012-12-03 14:15:00
8:35 AM,67.3,61.3,81,29.91,5.0,SSE,10.4,-,N/A,,Haze,160,2012-12-03 14:35:00
8:55 AM,68.0,61.7,80,29.90,7.0,South,9.2,18.4,N/A,,Mostly Cloudy,170,2012-12-03 14:55:00
9:15 AM,69.1,61.7,77,29.90,7.0,South,12.7,17.3,N/A,,Scattered Clouds,180,2012-12-03 15:15:00
9:35 AM,69.8,61.7,75,29.90,10.0,South,15.0,20.7,N/A,,Scattered Clouds,180,2012-12-03 15:35:00
9:55 AM,70.3,61.5,74,29.89,10.0,South,18.4,27.6,N/A,,Scattered Clouds,180,2012-12-03 15:55:00
10:15 AM,71.1,61.7,72,29.89,10.0,South,15.0,21.9,N/A,,Scattered Clouds,170,2012-12-03 16:15:00
10:35 AM,71.8,61.7,70,29.88,10.0,South,12.7,24.2,N/A,,Scattered Clouds,170,2012-12-03 16:35:00
10:55 AM,72.5,61.9,69,29.86,10.0,South,17.3,21.9,N/A,,Scattered Clouds,170,2012-12-03 16:55:00
11:15 AM,75.2,62.6,65,29.85,10.0,South,17.3,-,N/A,,Scattered Clouds,180,2012-12-03 17:15:00
11:35 AM,74.8,61.9,64,29.84,10.0,South,15.0,23.0,N/A,,Mostly Cloudy,180,2012-12-03 17:35:00
11:55 AM,75.0,61.7,63,29.82,10.0,South,16.1,24.2,N/A,,Mostly Cloudy,170,2012-12-03 17:55:00
12:15 PM,76.3,61.3,60,29.81,10.0,South,18.4,27.6,N/A,,Scattered Clouds,170,2012-12-03 18:15:00
12:35 PM,76.6,61.5,59,29.80,10.0,South,15.0,29.9,N/A,,Scattered Clouds,170,2012-12-03 18:35:00
12:55 PM,76.5,61.3,59,29.80,10.0,South,16.1,25.3,N/A,,Mostly Cloudy,170,2012-12-03 18:55:00
1:15 PM,74.8,60.8,62,29.79,10.0,South,21.9,29.9,N/A,,Mostly Cloudy,170,2012-12-03 19:15:00
1:35 PM,76.1,60.3,58,29.78,10.0,South,20.7,32.2,N/A,,Scattered Clouds,170,2012-12-03 19:35:00
1:55 PM,76.1,60.1,57,29.77,10.0,SSE,19.6,34.5,N/A,,Scattered Clouds,160,2012-12-03 19:55:00
2:15 PM,76.3,60.3,57,29.76,10.0,South,21.9,32.2,N/A,,Scattered Clouds,170,2012-12-03 20:15:00
2:35 PM,75.2,60.4,60,29.77,10.0,South,19.6,27.6,N/A,,Scattered Clouds,180,2012-12-03 20:35:00
2:55 PM,75.2,60.3,60,29.79,10.0,South,16.1,26.5,N/A,,Overcast,190,2012-12-03 20:55:00
3:15 PM,75.0,60.3,60,29.78,10.0,South,13.8,20.7,N/A,,Overcast,180,2012-12-03 21:15:00
3:35 PM,75.2,60.1,59,29.78,10.0,South,11.5,-,N/A,,Mostly Cloudy,170,2012-12-03 21:35:00
3:55 PM,74.7,60.1,60,29.80,10.0,South,15.0,19.6,N/A,,Scattered Clouds,180,2012-12-03 21:55:00
4:15 PM,74.8,59.9,60,29.80,10.0,South,10.4,18.4,N/A,,Overcast,180,2012-12-03 22:15:00
4:35 PM,75.2,59.0,57,29.80,10.0,South,17.3,25.3,N/A,,Overcast,180,2012-12-03 22:35:00
4:55 PM,74.8,58.1,56,29.79,10.0,South,17.3,26.5,N/A,,Scattered Clouds,170,2012-12-03 22:55:00
5:15 PM,73.8,58.1,58,29.80,10.0,South,13.8,20.7,N/A,,Clear,170,2012-12-03 23:15:00
5:35 PM,72.9,58.3,60,29.80,10.0,South,17.3,20.7,N/A,,Scattered Clouds,170,2012-12-03 23:35:00
5:55 PM,73.0,58.1,59,29.81,10.0,South,15.0,21.9,N/A,,Mostly Cloudy,170,2012-12-03 23:55:00
6:15 PM,72.9,57.7,59,29.82,10.0,South,15.0,19.6,N/A,,Overcast,190,2012-12-04 00:15:00
6:35 PM,72.9,57.6,59,29.82,10.0,South,18.4,25.3,N/A,,Overcast,180,2012-12-04 00:35:00
6:55 PM,72.5,57.7,60,29.82,10.0,South,19.6,28.8,N/A,,Mostly Cloudy,180,2012-12-04 00:55:00
7:15 PM,71.8,58.1,62,29.83,10.0,South,17.3,26.5,N/A,,Mostly Cloudy,180,2012-12-04 01:15:00
7:35 PM,71.1,58.3,64,29.83,10.0,South,15.0,23.0,N/A,,Mostly Cloudy,180,2012-12-04 01:35:00
7:55 PM,71.1,58.3,64,29.83,10.0,South,13.8,23.0,N/A,,Mostly Cloudy,180,2012-12-04 01:55:00
8:15 PM,70.9,58.1,64,29.84,10.0,South,16.1,25.3,N/A,,Mostly Cloudy,190,2012-12-04 02:15:00
8:35 PM,70.3,58.1,65,29.84,10.0,South,17.3,26.5,N/A,,Scattered Clouds,190,2012-12-04 02:35:00
8:55 PM,70.3,58.1,65,29.84,10.0,South,18.4,25.3,N/A,,Mostly Cloudy,190,2012-12-04 02:55:00
9:15 PM,70.7,57.7,63,29.84,10.0,South,15.0,23.0,N/A,,Overcast,180,2012-12-04 03:15:00
9:35 PM,70.3,57.7,64,29.87,10.0,SW,11.5,24.2,N/A,,Overcast,230,2012-12-04 03:35:00
9:55 PM,66.9,57.2,71,29.90,7.0,WNW,8.1,-,0.05,Rain,Light Rain,290,2012-12-04 03:55:00
10:15 PM,64.9,55.4,71,29.90,10.0,NW,3.5,-,N/A,Rain,Light Rain,320,2012-12-04 04:15:00
10:35 PM,64.9,51.6,62,29.92,10.0,WNW,11.5,-,N/A,,Overcast,290,2012-12-04 04:35:00
10:55 PM,63.5,50.9,63,29.93,10.0,WNW,10.4,17.3,N/A,,Overcast,290,2012-12-04 04:55:00
11:15 PM,62.2,49.6,63,29.95,10.0,West,5.8,-,N/A,,Overcast,270,2012-12-04 05:15:00
11:35 PM,61.0,48.2,63,29.95,10.0,WNW,9.2,-,N/A,Rain,Light Rain,290,2012-12-04 05:35:00
11:55 PM,60.8,48.2,63,29.95,10.0,WNW,8.1,-,N/A,,Overcast,300,2012-12-04 05:55:00